Location: Alvediston
(51.0078°N, 2.0364°W)
Time: 15:56:14
(UTC+00:00)

SJ 16-02 - Pass Details

Date: 27 February 2020
Orbit: 607 x 616 km, 75.0° (Epoch: 07 April)

Event Time Altitude Azimuth Distance (km) Brightness Sun altitude
Rises 18:58:14 0° 336° (NNW) 2,892 5.2 -12.3°
Reaches altitude 10° 19:00:30 10° 336° (NNW) 1,981 4.3 -12.7°
Maximum altitude 19:04:55 84° 251° (WSW) 622 1.4 -13.4°
Drops below altitude 10° 19:09:18 10° 162° (SSE) 1,960 3.7 -14.1°
Sets 19:11:32 0° 161° (SSE) 2,858 4.5 -14.4°
